Regional Weather Roundup
Issued by NWS

Home | Current Version | Previous Version | Graphics & Text | Print | Product List | Glossary On
Versions: 1 2 3 4 5 6 7 8 9 10 11 12 13 14 15 16 17 18 19 20 21 22 23 24 25 26 27 28 29 30 31 32 33 34 35 36 37 38 39 40 41 42 43 44 45 46 47 48 49 50
000
ASUS45 KCYS 201610
RWRWY

WYOMING REGIONAL WEATHER ROUNDUP
NATIONAL WEATHER SERVICE CHEYENNE WY
1000 AM MDT SAT SEP 20 2014

NOTE:  "FAIR" INDICATES FEW OR NO CLOUDS BELOW 12,000 FEET
WITH NO SIGNIFICANT WEATHER AND/OR OBSTRUCTIONS TO VISIBILITY.

WYZ001-201700-
YELLOWSTONE NATIONAL PARK

CITY           SKY/WX    TMP DP  RH WIND       PRES   REMARKS
LK YELLOWSTONE   N/A     50  43  77 CALM      30.44R
W YELLOWSTONE  NOT AVBL

$$
WYZ002>013-054>058-071-098>099-201700-
NORTHERN WYOMING

CITY           SKY/WX    TMP DP  RH WIND       PRES   REMARKS
JACKSON        SUNNY     52  43  71 VRB6        N/A
CODY             N/A    N/A N/A N/A MISG        N/A
GREYBULL       SUNNY     62  46  55 CALM      30.24R
WORLAND        SUNNY     62  46  55 N6        30.25R
SHERIDAN       SUNNY     67  44  43 NW18      30.24R
BUFFALO        SUNNY     64  41  42 N23       30.27R
GILLETTE       SUNNY     65  44  46 NW13      30.23R
HULETT         FAIR      64  43  45 MISG      30.21
NEWCASTLE      FAIR      66  41  39 NW18G24   30.19

$$
WYZ014>020-022>026-101>103-201700-
CENTRAL WYOMING

CITY           SKY/WX    TMP DP  RH WIND       PRES   REMARKS
BIG PINEY      SUNNY     58  33  39 E5        30.38R
PINEDALE       SUNNY     54  37  54 CALM      30.39R
DUBOIS         FAIR      55  37  50 NW9       30.37S
LANDER         SUNNY     65  39  38 E3        30.28R
RIVERTON       SUNNY     62  44  51 SE6       30.29R
CASPER         SUNNY     66  44  45 SW9       30.27R
DOUGLAS        SUNNY     64  47  53 NW8       30.27R

$$
WYZ021-027>030-104>119-201700-
SOUTHERN WYOMING

CITY           SKY/WX    TMP DP  RH WIND       PRES   REMARKS
EVANSTON       SUNNY     59  37  44 VRB3      30.37R
KEMMERER       SUNNY     59  36  41 N5        30.38S
FORT BRIDGER   FAIR      57  38  48 CALM      30.40R
ROCK SPRINGS   SUNNY     59  36  42 E5        30.36R
DIXON          FAIR      60  41  49 SE5       30.37S
RAWLINS        SUNNY     63  35  35 VRB6      30.35R
SARATOGA       FAIR      61  37  41 S6        30.37R
LARAMIE        SUNNY     62  37  39 CALM      30.36R
CHEYENNE       SUNNY     66  45  46 E3        30.29S
TORRINGTON     SUNNY     67  50  54 NW9       30.19R
PINE BLUFFS    FAIR      68  45  42 N3        30.25S

$$


USA.gov is the U.S. government's official web portal to all federal, state and local government web resources and services.